Tracking 25710 objects as of 6-Jul-2022
HD Live streaming from Space Station
objects crossing your sky now

STARLINK-3819

Track STARLINK-3819 now!
10-day predictions
STARLINK-3819 is classified as:


NORAD ID: 52349
Int'l Code: 2022-045U
Perigee: 473.7 km
Apogee: 476.3 km
Inclination: 53.2 °
Period: 94.0 minutes
Semi major axis: 6846 km
RCS: Unknown
Launch date: April 29, 2022
Source: United States (US)
Launch site: AIR FORCE EASTERN TEST RANGE (AFETR)
aabbcc
Your satellite tracking list
Your tracking list is empty




NASA's NSSDC Master Catalog

Two Line Element Set (TLE):
1 52349U 22045U   22186.91667824 -.00715829  00000-0 -24240-1 0  9995
2 52349  53.2177 108.4159 0001893  37.8245 146.3025 15.32662723  1300
Source of the keplerian elements: AFSPC